Needles, CA

10:55 AM PDT on June 23, 2017 (GMT -0700)
Needles

Weather History for KEED - October, 2012

Change the Weather History Date:

Sunday, October 7, 2012

  Actual Average Record
Temperature  
Mean Temperature 80 °F 78 °F  
Max Temperature 95 °F 91 °F 104 °F (1980)
Min Temperature 66 °F 65 °F 40 °F (1915)
Cooling Degree Days 16    
Growing Degree Days 30 (Base 50)    
Moisture  
Dew Point 31 °F    
Average Humidity 17    
Maximum Humidity 26    
Minimum Humidity 11    
Precipitation  
Precipitation 0.00 in 0.01 in 0.01 in (2014)
Month to date precipitation 0.06  
Year to date precipitation 3.51  
Sea Level Pressure  
Sea Level Pressure 29.75 in    
Wind  
Wind Speed 5 mph (NW)    
Max Wind Speed 9 mph    
Max Gust Speed -    
Visibility 10 miles    
Events      
T = Trace of Precipitation, MM = Missing Value Source: NWS Daily Summary

Daily Weather History Graph

Daily Weather History Graph

Search for Another Location

Airport or City:

Trip Planner

Search our weather history database for the weather conditions in past years. The results will help you decide how hot, cold, wet, or windy it might be!

Date:

Astronomy

Oct. 07, 2012 Rise Set
Actual Time 6:38 AM PDT 6:13 PM PDT
Civil Twilight 6:12 AM PDT 6:38 PM PDT
Nautical Twilight 5:43 AM PDT 7:07 PM PDT
Astronomical Twilight 5:14 AM PDT 7:37 PM PDT
Moon 11:38 PM PDT (10/7) 1:08 PM PDT (10/7)
Length of Visible Light 12h 25m
Length of Day
11h 35m
Waning Gibbous, 55% of the Moon is Illuminated
Oct 7
Waning Gibbous
Oct 8
Last Quarter
Oct 15
New
Oct 21
First Quarter
Oct 29
Full

Hourly Weather History & Observations

Time (PDT) Temp. Dew Point Humidity Pressure Visibility Wind Dir Wind Speed Gust Speed Precip Events Conditions
12:56 AM 73.9 °F 28.9 °F 19% 29.73 in 10.0 mi WSW 5.8 mph - N/A   Clear
1:56 AM 75.0 °F 28.9 °F 18% 29.73 in 10.0 mi WNW 6.9 mph - N/A   Clear
2:56 AM 72.0 °F 30.0 °F 21% 29.72 in 10.0 mi WNW 5.8 mph - N/A   Clear
3:56 AM 70.0 °F 28.9 °F 22% 29.73 in 10.0 mi Calm Calm - N/A   Clear
4:56 AM 70.0 °F 30.0 °F 23% 29.73 in 10.0 mi West 6.9 mph - N/A   Clear
5:56 AM 66.9 °F 28.9 °F 24% 29.75 in 10.0 mi West 3.5 mph - N/A   Clear
6:56 AM 66.9 °F 30.0 °F 25% 29.78 in 10.0 mi NNW 4.6 mph - N/A   Clear
7:56 AM 70.0 °F 33.1 °F 26% 29.81 in 10.0 mi Calm Calm - N/A   Clear
8:56 AM 75.0 °F 33.1 °F 22% 29.83 in 10.0 mi Calm Calm - N/A   Clear
9:56 AM 82.9 °F 32.0 °F 16% 29.82 in 10.0 mi NNE 4.6 mph - N/A   Clear
10:56 AM 86.0 °F 30.0 °F 13% 29.82 in 10.0 mi NNE 9.2 mph - N/A   Clear
11:56 AM 89.1 °F 32.0 °F 13% 29.80 in 10.0 mi ENE 5.8 mph - N/A   Clear
12:56 PM 91.9 °F 30.9 °F 11% 29.77 in 10.0 mi ENE 5.8 mph - N/A   Clear
1:56 PM 91.9 °F 30.9 °F 11% 29.74 in 10.0 mi Variable 3.5 mph - N/A   Clear
2:56 PM 95.0 °F 32.0 °F 11% 29.72 in 10.0 mi Variable 3.5 mph - N/A   Clear
3:56 PM 95.0 °F 32.0 °F 11% 29.71 in 10.0 mi Variable 3.5 mph - N/A   Clear
4:56 PM 93.9 °F 33.1 °F 12% 29.70 in 10.0 mi East 6.9 mph - N/A   Clear
5:56 PM 91.9 °F 28.9 °F 11% 29.70 in 10.0 mi ENE 4.6 mph - N/A   Clear
6:56 PM 87.1 °F 32.0 °F 14% 29.72 in 10.0 mi NNW 4.6 mph - N/A   Clear
7:56 PM 82.9 °F 30.9 °F 15% 29.74 in 10.0 mi West 5.8 mph - N/A   Clear
8:56 PM 82.0 °F 30.9 °F 16% 29.74 in 10.0 mi WSW 9.2 mph - N/A   Clear
9:56 PM 81.0 °F 34.0 °F 18% 29.74 in 10.0 mi West 8.1 mph - N/A   Clear
10:56 PM 79.0 °F 34.0 °F 20% 29.75 in 10.0 mi Calm Calm - N/A   Clear
11:56 PM 77.0 °F 34.0 °F 21% 29.75 in 10.0 mi Calm Calm - N/A   Clear